Location: Lourdes
(43.1000°N, 0.0500°W)
Time: 03:45:02
(UTC+00:00)

Cosmos 1689 Rocket - Pass Details

Date: 30 November 2020
Orbit: 356 x 370 km, 97.5° (Epoch: 24 January)

Event Time Altitude Azimuth Distance (km) Brightness Sun altitude
Exits shadow 18:28:30 31° 199° (SSW) 688 3.5 -21.7°
Drops below altitude 10° 18:30:11 10° 196° (SSW) 1,383 5.2 -22.0°
Sets 18:32:07 0° 196° (SSW) 2,231 6.3 -22.3°
